This is the latest recevied weather packets stored in our database for station/object K4KMJ. If no packets are shown the sender has not sent any weather packets the latest 10 day(s).
| Time | Temp. | Humidity | Pressure | Rain* | Wind** | Luminosity | Snow |
|---|---|---|---|---|---|---|---|
| 1777384120 | 24.44° C | 97% | 1021.9 hPa | 0 mm | - | 456 W/m² | - |
| 1777383817 | 23.89° C | 98% | 1021.9 hPa | 0 mm | - | 227 W/m² | - |
| 1777383513 | 23.89° C | 99% | 1021.8 hPa | 0 mm | - | 430 W/m² | - |
| 1777383210 | 24.44° C | 99% | 1021.8 hPa | 0 mm | - | 203 W/m² | - |
| 1777382906 | 23.89° C | 99% | 1021.8 hPa | 0 mm | - | 593 W/m² | - |
| 1777382602 | 23.33° C | 99% | 1021.9 hPa | 0 mm | - | 327 W/m² | - |
| 1777382298 | 23.89° C | 99% | 1021.7 hPa | 0 mm | - | 212 W/m² | - |
| 1777381994 | 23.89° C | 99% | 1021.7 hPa | 0 mm | - | 440 W/m² | - |
| 1777381689 | 23.33° C | 99% | 1021.5 hPa | 0 mm | - | 360 W/m² | - |
| 1777381385 | 23.33° C | 99% | 1021.5 hPa | 0 mm | - | 316 W/m² | - |
| 1777381082 | 23.33° C | 99% | 1021.5 hPa | 0 mm | - | 297 W/m² | - |
| 1777380778 | 23.33° C | 99% | 1021.3 hPa | 0 mm | - | 282 W/m² | - |
| 1777380475 | 22.78° C | 99% | 1021.2 hPa | 0 mm | - | 271 W/m² | - |
| 1777380172 | 22.78° C | 99% | 1021.4 hPa | 0 mm | - | 256 W/m² | - |
| 1777379868 | 22.22° C | 99% | 1021.3 hPa | 0 mm | - | 251 W/m² | - |
| 1777379563 | 21.67° C | 99% | 1021.4 hPa | 0 mm | - | 185 W/m² | - |
| 1777379259 | 21.67° C | 99% | 1021 hPa | 0 mm | - | 104 W/m² | - |
| 1777378959 | 21.67° C | 99% | 1021.1 hPa | 0 mm | - | 220 W/m² | - |
| 1777378655 | 21.67° C | 99% | 1021.1 hPa | 0 mm | - | 257 W/m² | - |
| 1777378352 | 21.11° C | 99% | 1021.1 hPa | 0 mm | - | 237 W/m² | - |
| 1777378046 | 20.56° C | 99% | 1021.2 hPa | 0 mm | - | 187 W/m² | - |
| 1777377740 | 20° C | 99% | 1021 hPa | 0 mm | - | 95 W/m² | - |
| 1777377435 | 20.56° C | 99% | 1021 hPa | 0 mm | - | 100 W/m² | - |
| 1777377131 | 19.44° C | 99% | 1021.2 hPa | 0 mm | - | 101 W/m² | - |
| 1777376829 | 19.44° C | 99% | 1021 hPa | 0 mm | - | 42 W/m² | - |
* Rain latest hour (hover to see other rain measurements)
** Current wind speed in m/s (hover to see current wind gust speed)